Location: Cudham
(51.3000°N, 0.0667°E)
Time: 14:18:50
(UTC+00:00)

Cosmos 773 Rocket - Pass Details

Date: 19 May 2025
Orbit: 742 x 772 km, 74.1° (Epoch: 17 June)

Event Time Altitude Azimuth Distance (km) Brightness Sun altitude
Exits shadow 21:51:30 12° 190° (S) 2,115 5.8 -13.7°
Maximum altitude 21:56:11 65° 110° (ESE) 821 3.9 -14.0°
Drops below altitude 10° 22:01:16 10° 29° (NNE) 2,267 6.9 -14.4°
Sets 22:03:38 0° 27° (NNE) 3,194 7.7 -14.6°
